period_start,C,m1,H,J0,J1,J2,J3,J4,J5,JA,JB,JC,JD,JJ,JK,JN,#
2016-10-10 00:03:16,0.00,1.57,0.00,24.87,28.40,31.27,14.41,42.06,1027.39,2027.99,2905.00,2710.08,3075.03,599.91,598.45,38.30,0000 0000 0000 0000 000000
2016-10-10 00:08:18,0.00,1.57,0.00,24.87,28.40,31.29,14.39,42.09,1027.43,2027.99,2904.99,2710.03,3075.01,599.91,598.51,38.35,0000 0000 0000 0000 000000
2016-10-10 00:13:19,0.01,1.57,0.00,24.84,28.39,31.28,14.52,41.98,1027.39,2027.99,2904.68,2710.00,3075.00,600.21,598.87,38.40,0000 0000 0000 0000 000000
2016-10-10 00:18:20,0.00,1.57,0.00,24.86,28.38,31.28,14.42,42.05,1027.37,2027.99,2904.37,2710.00,3075.00,600.08,598.76,38.45,0000 0000 0000 0000 000000
2016-10-10 00:23:21,0.00,1.57,0.00,24.87,28.37,31.30,14.44,42.03,1027.37,2027.99,2904.18,2710.00,3074.99,599.78,598.33,38.50,0000 0000 0000 0000 000000
2016-10-10 00:28:22,0.03,1.57,0.00,24.84,28.37,31.28,14.43,42.02,1027.37,2027.99,2903.89,2709.77,3074.63,600.10,598.77,38.55,0000 0000 0000 0000 000000
2016-10-10 00:33:24,0.03,1.58,0.00,24.88,28.37,31.29,14.50,42.12,1027.38,2027.99,2903.08,2709.04,3074.01,600.01,598.67,38.60,0000 0000 0000 0000 000000
2016-10-10 00:38:25,0.00,1.58,0.00,24.87,28.37,31.30,14.49,42.10,1027.37,2027.99,2903.00,2709.00,3073.96,600.17,598.82,38.65,0000 0000 0000 0000 000000
2016-10-10 00:43:26,0.00,1.58,0.00,24.87,28.37,31.27,14.40,42.18,1027.36,2027.99,2902.98,2709.00,3073.93,599.86,598.42,38.70,0000 0000 0000 0000 000000
2016-10-10 00:48:27,0.01,1.58,0.00,24.85,28.37,31.27,14.48,42.26,1027.36,2027.99,2902.67,2708.98,3073.70,599.90,598.49,38.75,0000 0000 0000 0000 000000
2016-10-10 00:53:28,0.08,1.58,0.00,24.88,28.36,31.28,14.50,42.23,1027.37,2028.00,2901.41,2708.11,3072.69,600.08,598.63,38.80,0000 0000 0000 0000 000000
2016-10-10 00:58:30,0.05,1.59,0.00,24.89,28.35,31.31,14.51,42.31,1027.37,2028.00,2900.07,2707.13,3072.01,600.24,598.70,38.85,0000 0000 0000 0000 000000
2016-10-10 01:03:31,0.01,1.59,0.00,24.83,28.35,31.30,14.40,42.19,1027.37,2028.00,2899.83,2706.98,3071.78,599.93,598.46,38.90,0000 0000 0000 0000 000000
2016-10-10 01:08:33,0.13,1.59,0.00,24.86,28.35,31.30,14.40,42.23,1027.36,2028.00,2897.91,2705.70,3070.21,599.87,598.44,38.95,0000 0000 0000 0000 000000
2016-10-10 01:13:34,0.08,1.60,0.00,24.86,28.35,31.30,14.51,42.40,1027.36,2028.00,2896.14,2704.27,3068.79,600.29,598.76,39.00,0000 0000 0000 0000 000000
2016-10-10 01:18:35,0.03,1.60,0.00,24.84,28.35,31.30,14.40,42.15,1027.35,2028.00,2895.27,2703.90,3068.03,599.78,598.28,39.05,0000 0000 0000 0000 000000
2016-10-10 01:23:36,0.02,1.60,0.00,24.83,28.35,31.29,14.42,42.26,1027.33,2028.00,2895.00,2703.27,3067.99,599.87,598.40,39.11,0000 0000 0000 0000 000000
2016-10-10 01:28:38,-0.00,1.60,0.00,24.84,28.35,31.27,14.47,42.29,1027.36,2028.00,2895.00,2703.22,3067.97,600.13,598.68,39.16,0000 0000 0000 0000 000000
2016-10-10 01:33:39,0.00,1.60,0.00,24.81,28.35,31.27,14.46,42.16,1027.37,2028.01,2895.00,2703.17,3067.97,599.93,598.66,39.21,0000 0000 0000 0000 000000
2016-10-10 01:38:40,0.02,1.60,0.00,24.84,28.34,31.26,14.41,42.28,1027.37,2028.00,2894.63,2703.00,3067.19,599.92,598.60,39.26,0000 0000 0000 0000 000000
2016-10-10 01:43:42,0.00,1.60,0.00,24.81,28.32,31.25,14.44,42.38,1027.23,2028.00,2894.08,2702.99,3067.01,599.84,598.40,39.31,0000 0000 0000 0000 000000
2016-10-10 01:48:43,0.00,1.60,0.00,24.85,28.32,31.27,14.39,42.23,1027.09,2028.00,2894.02,2702.91,3067.00,599.97,598.40,39.36,0000 0000 0000 0000 000000
2016-10-10 01:53:44,0.00,1.60,0.00,24.90,28.32,31.28,14.38,42.02,1027.10,2028.00,2894.00,2702.67,3066.98,599.84,598.20,39.41,0000 0000 0000 0000 000000
2016-10-10 01:58:45,0.01,1.60,0.00,24.85,28.32,31.27,14.45,42.05,1027.16,2028.00,2894.00,2702.45,3066.97,600.10,598.54,39.46,0000 0000 0000 0000 000000
2016-10-10 02:03:46,0.01,1.60,0.00,24.85,28.32,31.25,14.39,41.98,1027.09,2028.00,2893.94,2702.23,3066.86,599.97,598.44,39.51,0000 0000 0000 0000 000000
2016-10-10 02:08:47,0.01,1.60,0.00,24.87,28.32,31.29,14.50,42.25,1026.93,2028.00,2893.75,2702.06,3066.60,600.22,598.47,39.56,0000 0000 0000 0000 000000
2016-10-10 02:13:49,0.01,1.61,0.00,24.85,28.32,31.25,14.49,42.35,1026.91,2028.00,2893.58,2702.03,3066.33,600.20,598.69,39.61,0000 0000 0000 0000 000000
2016-10-10 02:18:50,-0.00,1.61,0.00,24.82,28.32,31.21,14.50,42.33,1026.97,2028.00,2893.45,2702.02,3066.17,600.18,598.50,39.66,0000 0000 0000 0000 000000
2016-10-10 02:23:51,0.01,1.61,0.00,24.80,28.32,31.23,14.53,42.38,1026.93,2028.00,2893.17,2702.01,3066.09,600.55,598.89,39.71,0000 0000 0000 0000 000000
2016-10-10 02:28:52,0.00,1.61,0.00,24.82,28.32,31.26,14.44,42.58,1026.91,2028.01,2893.04,2702.00,3066.01,600.07,598.40,39.76,0000 0000 0000 0000 000000
2016-10-10 02:33:54,0.00,1.61,0.00,24.90,28.32,31.28,14.39,42.37,1026.98,2028.01,2893.00,2702.00,3066.01,599.99,598.25,39.81,0000 0000 0000 0000 000000
2016-10-10 02:38:55,0.00,1.61,0.00,24.87,28.32,31.26,14.42,42.27,1027.28,2028.00,2893.00,2702.00,3066.01,600.08,598.62,39.86,0000 0000 0000 0000 000000
2016-10-10 02:43:56,0.00,1.61,0.00,24.85,28.31,31.24,14.46,42.11,1027.37,2028.02,2893.00,2702.00,3066.01,600.04,598.61,39.91,0000 0000 0000 0000 000000
2016-10-10 02:48:57,0.00,1.61,0.00,24.84,28.30,31.24,14.49,42.21,1027.36,2028.00,2892.92,2701.98,3066.00,600.28,598.89,39.97,0000 0000 0000 0000 000000
2016-10-10 02:53:58,0.06,1.61,0.00,24.86,28.30,31.23,14.46,42.19,1027.36,2028.01,2892.08,2701.41,3065.41,599.95,598.54,40.02,0000 0000 0000 0000 000000
2016-10-10 02:58:59,0.03,1.61,0.00,24.87,28.30,31.25,14.48,42.03,1027.36,2028.01,2891.22,2700.97,3064.83,599.56,598.17,40.07,0000 0000 0000 0000 000000
2016-10-10 03:04:01,0.05,1.61,0.00,24.86,28.30,31.24,14.44,42.21,1027.36,2028.01,2890.57,2700.39,3064.09,600.17,598.78,40.12,0000 0000 0000 0000 000000
2016-10-10 03:09:02,0.01,1.61,0.00,24.84,28.29,31.23,14.44,42.19,1027.36,2028.00,2890.00,2700.01,3063.94,600.10,598.70,40.17,0000 0000 0000 0000 000000
2016-10-10 03:14:03,0.03,1.62,0.00,24.81,28.28,31.23,14.45,42.13,1027.36,2028.01,2889.38,2699.96,3063.25,600.10,598.83,40.22,0000 0000 0000 0000 000000
2016-10-10 03:19:05,0.03,1.62,0.00,24.88,28.27,31.21,14.49,42.26,1027.36,2028.02,2888.99,2699.34,3063.00,600.11,598.46,40.27,0000 0000 0000 0000 000000
2016-10-10 03:24:06,0.02,1.62,0.00,24.86,28.27,31.21,14.42,42.32,1027.36,2028.01,2888.51,2699.01,3062.59,600.12,598.76,40.32,0000 0000 0000 0000 000000
2016-10-10 03:29:07,0.01,1.62,0.00,24.82,28.27,31.22,14.41,42.30,1027.36,2028.02,2888.04,2699.00,3062.14,600.21,598.84,40.37,0000 0000 0000 0000 000000
2016-10-10 03:34:09,-0.00,1.62,0.00,24.86,28.27,31.21,14.53,42.36,1027.35,2028.02,2888.02,2699.00,3062.07,600.41,598.98,40.42,0000 0000 0000 0000 000000
2016-10-10 03:39:10,0.01,1.62,0.00,24.88,28.27,31.21,14.41,42.30,1027.32,2028.04,2888.00,2698.98,3062.01,599.95,598.57,40.47,0000 0000 0000 0000 000000
2016-10-10 03:44:11,0.00,1.62,0.00,24.82,28.27,31.20,14.42,42.33,1027.30,2028.02,2888.00,2698.97,3062.00,600.16,598.76,40.52,0000 0000 0000 0000 000000
2016-10-10 03:49:13,-0.00,1.62,0.00,24.87,28.27,31.21,14.35,42.19,1027.34,2028.01,2887.98,2698.91,3062.00,599.53,598.07,40.57,0000 0000 0000 0000 000000
2016-10-10 03:54:14,0.00,1.62,0.00,24.81,28.27,31.20,14.46,42.38,1027.35,2028.03,2887.98,2698.85,3062.00,599.88,598.61,40.62,0000 0000 0000 0000 000000
2016-10-10 03:59:15,0.02,1.62,0.00,24.89,28.27,31.19,14.40,42.10,1027.36,2028.04,2887.73,2698.58,3061.97,600.01,598.51,40.67,0000 0000 0000 0000 000000
2016-10-10 04:04:16,0.04,1.62,0.00,24.82,28.27,31.23,14.43,42.33,1027.35,2028.04,2886.94,2698.02,3061.24,599.79,598.34,40.72,0000 0000 0000 0000 000000
2016-10-10 04:09:18,0.02,1.62,0.00,24.87,28.27,31.22,14.47,42.43,1027.36,2028.05,2886.15,2697.92,3060.99,599.82,598.36,40.77,0000 0000 0000 0000 000000
2016-10-10 04:14:19,0.01,1.62,0.00,24.85,28.27,31.22,14.45,42.33,1027.32,2028.05,2886.00,2697.63,3060.97,600.02,598.61,40.82,0000 0000 0000 0000 000000
2016-10-10 04:19:21,0.01,1.63,0.00,24.87,28.27,31.22,14.39,42.36,1027.35,2028.04,2886.00,2697.24,3060.87,599.58,598.28,40.87,0000 0000 0000 0000 000000
2016-10-10 04:24:22,0.00,1.63,0.00,24.83,28.27,31.20,14.51,42.38,1027.35,2028.03,2885.99,2697.11,3060.77,599.88,598.62,40.92,0000 0000 0000 0000 000000
2016-10-10 04:29:23,0.01,1.63,0.00,24.85,28.27,31.23,14.48,42.23,1027.36,2028.04,2885.99,2697.07,3060.56,599.98,598.58,40.98,0000 0000 0000 0000 000000
2016-10-10 04:34:25,0.00,1.63,0.00,24.85,28.27,31.24,14.45,42.28,1027.36,2028.04,2885.96,2697.03,3060.22,600.34,599.00,41.03,0000 0000 0000 0000 000000
2016-10-10 04:39:26,0.00,1.63,0.00,24.85,28.27,31.23,14.43,42.25,1027.36,2028.04,2885.94,2697.02,3060.07,599.48,598.13,41.08,0000 0000 0000 0000 000000
2016-10-10 04:44:27,0.01,1.63,0.00,24.89,28.27,31.23,14.47,42.23,1027.36,2028.04,2885.64,2697.00,3060.04,600.15,598.78,41.13,0000 0000 0000 0000 000000
2016-10-10 04:49:29,0.00,1.63,0.00,24.86,28.27,31.21,14.44,42.38,1027.36,2028.02,2885.22,2697.00,3060.01,599.93,598.43,41.18,0000 0000 0000 0000 000000
2016-10-10 04:54:30,0.00,1.63,0.00,24.85,28.27,31.20,14.41,42.48,1027.36,2028.03,2885.05,2697.00,3060.00,599.96,598.63,41.23,0000 0000 0000 0000 000000
2016-10-10 04:59:31,0.01,1.63,0.00,24.84,28.27,31.22,14.42,42.11,1027.36,2028.05,2885.03,2697.00,3060.00,600.23,598.84,41.28,0000 0000 0000 0000 000000
2016-10-10 05:04:33,0.00,1.63,0.00,24.87,28.27,31.22,14.46,42.31,1027.36,2028.08,2885.03,2697.00,3060.00,599.91,598.49,41.33,0000 0000 0000 0000 000000
2016-10-10 05:09:35,-0.00,1.63,0.00,24.87,28.27,31.21,14.49,42.19,1027.35,2028.05,2885.00,2697.00,3059.99,600.52,599.00,41.38,0000 0000 0000 0000 000000
2016-10-10 05:14:36,0.01,1.63,0.00,24.82,28.26,31.19,14.47,42.18,1027.36,2028.11,2885.00,2696.98,3059.97,599.92,598.64,41.43,0000 0000 0000 0000 000000
2016-10-10 05:19:37,-0.00,1.63,0.00,24.91,28.26,31.21,14.48,42.17,1027.36,2028.18,2885.00,2696.97,3059.97,600.19,598.66,41.48,0000 0000 0000 0000 000000
2016-10-10 05:24:38,-0.01,1.63,0.00,24.87,28.27,31.21,14.46,42.27,1027.36,2028.08,2884.99,2696.95,3059.85,599.71,598.33,41.53,0000 0000 0000 0000 000000
2016-10-10 05:29:40,0.02,1.63,0.00,24.87,28.27,31.22,14.46,42.25,1027.36,2028.05,2884.83,2696.62,3059.31,599.81,598.44,41.58,0000 0000 0000 0000 000000
2016-10-10 05:34:41,0.02,1.63,0.00,24.83,28.27,31.20,14.47,42.17,1027.36,2028.02,2884.20,2696.13,3059.02,599.98,598.60,41.63,0000 0000 0000 0000 000000
2016-10-10 05:39:42,0.00,1.63,0.00,24.89,28.27,31.22,14.43,42.23,1027.36,2028.04,2884.00,2696.02,3059.00,599.71,598.23,41.68,0000 0000 0000 0000 000000
2016-10-10 05:44:43,0.00,1.63,0.00,24.88,28.27,31.21,14.49,42.18,1027.36,2028.03,2883.96,2696.00,3058.94,600.25,598.89,41.73,0000 0000 0000 0000 000000
2016-10-10 05:49:44,0.03,1.63,0.00,24.86,28.27,31.26,14.50,42.22,1027.36,2028.06,2883.40,2695.96,3058.29,600.05,598.59,41.78,0000 0000 0000 0000 000000
2016-10-10 05:54:46,0.02,1.63,0.00,24.84,28.27,31.20,14.49,42.18,1027.36,2028.03,2883.01,2695.45,3058.01,600.05,598.71,41.83,0000 0000 0000 0000 000000
2016-10-10 05:59:47,0.01,1.64,0.00,24.87,28.27,31.20,14.46,42.09,1027.37,2028.08,2882.97,2695.05,3057.99,600.26,598.92,41.88,0000 0000 0000 0000 000000
2016-10-10 06:04:48,0.02,1.64,0.00,24.84,28.27,31.21,14.49,42.16,1027.36,2028.08,2882.27,2695.00,3057.64,600.12,598.73,41.94,0000 0000 0000 0000 000000
2016-10-10 06:09:50,0.01,1.64,0.00,24.89,28.27,31.22,14.50,42.18,1027.37,2028.11,2882.04,2694.99,3057.17,600.20,598.77,41.99,0000 0000 0000 0000 000000
2016-10-10 06:14:51,0.00,1.64,0.00,24.86,28.27,31.22,14.42,42.16,1027.37,2028.10,2882.00,2694.96,3057.02,599.90,598.49,42.04,0000 0000 0000 0000 000000
2016-10-10 06:19:52,0.01,1.64,0.00,24.85,28.27,31.21,14.42,42.13,1027.38,2028.06,2881.92,2694.68,3056.99,599.93,598.59,42.09,0000 0000 0000 0000 000000
2016-10-10 06:24:53,0.03,1.64,0.00,24.84,28.27,31.22,14.42,42.21,1027.37,2028.03,2881.30,2694.12,3056.95,600.05,598.67,42.14,0000 0000 0000 0000 000000
2016-10-10 06:29:55,0.00,1.64,0.00,24.88,28.27,31.23,14.45,42.20,1027.38,2028.05,2881.04,2694.02,3056.50,599.98,598.56,42.19,0000 0000 0000 0000 000000
2016-10-10 06:34:56,0.01,1.64,0.00,24.83,28.27,31.23,14.52,42.17,1027.39,2028.08,2881.00,2694.00,3056.10,600.14,598.82,42.24,0000 0000 0000 0000 000000
2016-10-10 06:39:57,0.01,1.64,0.00,24.83,28.27,31.24,14.40,42.11,1027.38,2028.07,2880.97,2694.00,3056.02,600.05,598.66,42.29,0000 0000 0000 0000 000000
2016-10-10 06:44:59,0.00,1.64,0.00,24.85,28.27,31.25,14.53,42.07,1027.43,2028.06,2880.74,2693.98,3056.00,600.05,598.71,42.34,0000 0000 0000 0000 000000
2016-10-10 06:50:00,0.02,1.64,0.00,24.87,28.27,31.22,14.40,42.04,1027.48,2028.08,2880.12,2693.93,3055.98,600.03,598.63,42.39,0000 0000 0000 0000 000000
2016-10-10 06:55:02,0.01,1.64,0.00,24.82,28.27,31.23,14.51,42.09,1027.46,2028.10,2880.00,2693.57,3055.82,600.24,598.95,42.44,0000 0000 0000 0000 000000
2016-10-10 07:00:03,0.02,1.64,0.00,24.91,28.27,31.23,14.45,42.10,1027.73,2028.11,2879.99,2693.15,3055.27,599.96,598.68,42.49,0000 0000 0000 0000 000000
2016-10-10 07:05:04,0.01,1.64,0.00,24.90,28.27,31.25,14.47,42.15,1027.57,2028.11,2879.73,2693.02,3055.03,600.13,598.70,42.54,0000 0000 0000 0000 000000
2016-10-10 07:10:05,0.01,1.65,0.00,24.81,28.27,31.20,14.48,42.04,1027.77,2028.11,2879.16,2693.00,3054.99,600.35,599.27,42.59,0000 0000 0000 0000 000000
2016-10-10 07:15:06,0.00,1.65,0.00,24.80,28.27,31.23,14.47,42.12,1027.83,2028.05,2879.00,2692.98,3054.75,599.87,598.88,42.64,0000 0000 0000 0000 000000
2016-10-10 07:20:07,0.01,1.65,0.00,24.88,28.27,31.23,14.37,42.11,1027.78,2028.08,2878.99,2692.92,3054.19,599.57,598.39,42.69,0000 0000 0000 0000 000000
2016-10-10 07:25:09,0.02,1.65,0.00,24.87,28.27,31.24,14.44,42.08,1027.73,2028.09,2878.93,2692.48,3054.02,600.15,598.88,42.74,0000 0000 0000 0000 000000
2016-10-10 07:30:10,0.02,1.65,0.00,24.86,28.27,31.23,14.38,42.09,1027.76,2028.12,2878.47,2692.12,3054.00,599.90,598.57,42.79,0000 0000 0000 0000 000000
2016-10-10 07:35:11,0.00,1.65,0.00,24.82,28.27,31.24,14.53,42.15,1027.83,2028.11,2878.05,2692.02,3053.98,600.12,599.04,42.85,0000 0000 0000 0000 000000
2016-10-10 07:40:13,0.01,1.65,0.00,24.81,28.27,31.19,14.44,42.13,1027.82,2028.17,2877.99,2692.00,3053.58,599.89,598.83,42.90,0000 0000 0000 0000 000000
2016-10-10 07:45:14,0.01,1.65,0.00,24.90,28.27,31.22,14.53,42.09,1027.79,2028.10,2877.72,2691.98,3053.05,600.32,599.02,42.95,0000 0000 0000 0000 000000
2016-10-10 07:50:15,0.03,1.65,0.00,24.92,28.27,31.22,14.47,42.04,1027.83,2028.18,2877.06,2691.73,3052.99,600.04,598.75,43.00,0000 0000 0000 0000 000000
2016-10-10 07:55:16,0.01,1.65,0.00,24.86,28.27,31.22,14.50,42.03,1027.84,2028.17,2877.00,2691.16,3052.82,599.98,598.83,43.05,0000 0000 0000 0000 000000
2016-10-10 08:00:18,0.03,1.65,0.00,24.82,28.27,31.21,14.44,42.01,1027.85,2028.17,2876.35,2691.00,3052.08,600.17,599.17,43.10,0000 0000 0000 0000 000000
2016-10-10 08:05:19,0.01,1.65,0.00,24.88,28.27,31.24,14.47,42.02,1027.85,2028.24,2876.01,2691.00,3052.00,599.98,598.81,43.15,0000 0000 0000 0000 000000
2016-10-10 08:10:21,0.01,1.66,0.00,24.83,28.27,31.22,14.50,42.08,1027.85,2028.23,2875.85,2690.77,3051.74,600.06,599.06,43.20,0000 0000 0000 0000 000000
2016-10-10 08:15:22,0.11,1.66,0.00,24.86,28.27,31.23,14.46,42.02,1027.85,2028.11,2873.83,2689.44,3050.34,600.08,598.94,43.25,0000 0000 0000 0000 000000
2016-10-10 08:20:23,0.01,1.66,0.00,24.86,28.27,31.23,14.56,42.14,1027.85,2028.17,2873.01,2689.00,3049.96,600.42,599.39,43.30,0000 0000 0000 0000 000000
2016-10-10 08:25:25,0.02,1.66,0.00,24.85,28.27,31.23,14.43,42.03,1027.85,2028.20,2872.80,2688.97,3049.32,600.38,599.28,43.35,0000 0000 0000 0000 000000
2016-10-10 08:30:26,0.05,1.66,0.00,24.79,28.27,31.21,14.53,41.92,1027.86,2028.25,2872.06,2688.63,3049.00,600.08,598.98,43.40,0000 0000 0000 0000 000000
2016-10-10 08:35:27,0.01,1.67,0.00,24.85,28.27,31.21,14.34,41.97,1027.86,2028.22,2871.95,2688.04,3048.75,599.47,598.38,43.45,0000 0000 0000 0000 000000
2016-10-10 08:40:29,0.05,1.67,0.00,24.84,28.27,31.22,14.47,42.05,1027.87,2028.21,2870.73,2687.63,3047.65,599.95,598.77,43.50,0000 0000 0000 0000 000000
2016-10-10 08:45:31,0.35,1.69,0.00,24.81,28.27,31.21,14.45,42.01,1027.87,2028.28,2864.43,2683.55,3043.33,599.99,598.95,43.55,0000 0000 0000 0000 000000
2016-10-10 08:50:32,0.04,1.69,0.00,24.83,28.27,31.22,14.49,42.03,1027.88,2028.38,2863.38,2683.01,3042.84,600.28,599.22,43.60,0000 0000 0000 0000 000000
2016-10-10 08:55:33,0.02,1.69,0.00,24.82,28.27,31.20,14.44,41.94,1027.88,2028.29,2863.00,2682.99,3042.10,600.20,599.14,43.65,0000 0000 0000 0000 000000
2016-10-10 09:00:35,0.02,1.69,0.00,24.86,28.27,31.20,14.45,42.02,1027.89,2028.35,2862.66,2682.74,3041.99,600.05,598.98,43.70,0000 0000 0000 0000 000000
2016-10-10 09:05:36,0.04,1.69,0.00,24.82,28.27,31.21,14.41,41.98,1027.91,2028.35,2862.02,2682.09,3041.69,599.63,598.64,43.76,0000 0000 0000 0000 000000
2016-10-10 09:10:37,-0.00,1.69,0.00,24.84,28.27,31.21,14.47,42.00,1028.13,2028.26,2861.88,2682.00,3041.06,599.79,598.93,43.81,0000 0000 0000 0000 000000
2016-10-10 09:15:39,0.01,1.69,0.00,24.92,28.27,31.22,14.51,42.02,1028.24,2028.20,2861.16,2681.98,3040.99,599.81,598.76,43.86,0000 0000 0000 0000 000000
2016-10-10 09:20:40,0.05,1.70,0.00,24.86,28.27,31.22,14.43,42.08,1028.10,2028.41,2861.00,2681.75,3040.60,599.91,598.92,43.91,0000 0000 0000 0000 000000
2016-10-10 09:25:41,0.02,1.70,0.00,24.81,28.27,31.22,14.42,42.07,1028.15,2028.32,2860.67,2681.08,3040.03,599.96,599.07,43.96,0000 0000 0000 0000 000000
2016-10-10 09:30:42,0.02,1.70,0.00,24.86,28.27,31.22,14.53,41.92,1028.07,2028.24,2860.03,2681.00,3039.99,600.19,599.21,44.01,0000 0000 0000 0000 000000
2016-10-10 09:35:44,0.01,1.70,0.00,24.87,28.27,31.23,14.44,41.96,1028.04,2028.26,2859.99,2680.98,3039.55,600.32,599.20,44.06,0000 0000 0000 0000 000000
2016-10-10 09:40:45,0.04,1.70,0.00,24.80,28.27,31.21,14.49,42.08,1027.96,2028.35,2859.41,2680.67,3039.02,599.95,598.86,44.11,0000 0000 0000 0000 000000
2016-10-10 09:45:46,0.04,1.70,0.00,24.81,28.26,31.23,14.40,42.02,1027.90,2028.49,2859.01,2680.10,3038.88,599.94,598.93,44.16,0000 0000 0000 0000 000000
2016-10-10 09:50:47,0.00,1.70,0.00,24.86,28.25,31.25,14.42,42.07,1027.90,2028.48,2858.90,2680.00,3038.24,600.01,598.93,44.21,0000 0000 0000 0000 000000
2016-10-10 09:55:49,0.04,1.71,0.00,24.80,28.25,31.25,14.40,41.99,1027.89,2028.54,2858.18,2680.00,3038.00,599.88,598.88,44.26,0000 0000 0000 0000 000000
2016-10-10 10:00:50,0.02,1.71,0.00,24.83,28.25,31.26,14.42,41.94,1027.87,2028.71,2858.00,2679.93,3037.91,600.20,599.21,44.31,0000 0000 0000 0000 000000
2016-10-10 10:05:51,0.02,1.71,0.00,24.84,28.25,31.23,14.44,41.99,1027.87,2028.70,2857.87,2679.33,3037.17,599.97,598.88,44.36,0000 0000 0000 0000 000000
2016-10-10 10:10:53,0.04,1.71,0.00,24.82,28.25,31.23,14.41,42.08,1027.86,2028.78,2857.12,2679.03,3037.00,600.06,598.94,44.41,0000 0000 0000 0000 000000
2016-10-10 10:15:54,0.01,1.71,0.00,24.84,28.25,31.22,14.45,42.19,1027.86,2028.77,2857.00,2678.99,3036.74,599.94,598.72,44.46,0000 0000 0000 0000 000000
2016-10-10 10:20:55,0.01,1.71,0.00,24.80,28.25,31.23,14.42,42.07,1027.87,2028.65,2856.70,2678.85,3036.07,599.82,598.87,44.51,0000 0000 0000 0000 000000
2016-10-10 10:25:57,0.05,1.71,0.00,24.81,28.25,31.22,14.49,42.02,1027.85,2028.78,2856.05,2678.17,3035.99,599.96,598.91,44.56,0000 0000 0000 0000 000000
2016-10-10 10:30:58,0.01,1.71,0.00,24.89,28.25,31.25,14.50,42.04,1027.85,2028.85,2855.98,2678.01,3035.54,600.42,599.24,44.61,0000 0000 0000 0000 000000
2016-10-10 10:36:00,0.01,1.71,0.00,24.88,28.25,31.23,14.37,41.90,1027.85,2028.76,2855.37,2677.98,3035.02,599.73,598.44,44.67,0000 0000 0000 0000 000000
2016-10-10 10:41:01,0.00,1.72,0.00,24.85,28.25,31.23,14.46,42.04,1027.85,2028.46,2855.00,2677.43,3034.57,600.42,599.16,44.72,0000 0000 0000 0000 000000
2016-10-10 10:46:02,0.03,1.72,0.00,24.79,28.25,31.23,14.40,42.08,1027.85,2028.51,2854.52,2677.03,3034.03,599.90,598.96,44.77,0000 0000 0000 0000 000000
2016-10-10 10:51:03,0.00,1.72,0.00,24.80,28.25,31.23,14.49,41.96,1027.85,2028.41,2854.01,2677.00,3033.88,600.29,599.21,44.82,0000 0000 0000 0000 000000
2016-10-10 10:56:05,0.05,1.72,0.00,24.87,28.25,31.23,14.47,41.92,1027.85,2028.62,2853.87,2676.91,3033.14,600.23,598.98,44.87,0000 0000 0000 0000 000000
2016-10-10 11:01:06,0.06,1.72,0.00,24.80,28.25,31.21,14.42,42.01,1027.85,2028.79,2853.11,2676.25,3033.00,599.70,598.74,44.92,0000 0000 0000 0000 000000
2016-10-10 11:06:07,0.01,1.72,0.00,24.81,28.25,31.20,14.50,41.98,1027.86,2028.73,2852.99,2676.01,3032.45,600.27,599.22,44.97,0000 0000 0000 0000 000000
2016-10-10 11:11:08,0.03,1.72,0.00,24.82,28.25,31.22,14.46,41.85,1027.85,2028.88,2852.57,2675.99,3032.02,599.86,598.95,45.02,0000 0000 0000 0000 000000
2016-10-10 11:16:10,0.01,1.73,0.00,24.85,28.24,31.25,14.54,41.90,1027.85,2028.88,2852.02,2675.76,3031.93,600.15,599.01,45.07,0000 0000 0000 0000 000000
2016-10-10 11:21:11,0.03,1.73,0.00,24.83,28.24,31.23,14.42,41.84,1027.85,2028.86,2851.95,2675.18,3031.30,600.14,599.10,45.12,0000 0000 0000 0000 000000
2016-10-10 11:26:13,0.02,1.73,0.00,24.77,28.24,31.22,14.45,42.06,1027.85,2028.80,2851.25,2675.01,3030.98,599.85,598.93,45.17,0000 0000 0000 0000 000000
2016-10-10 11:31:14,0.02,1.73,0.00,24.81,28.24,31.22,14.44,41.92,1027.85,2028.75,2850.99,2674.93,3030.33,599.90,598.82,45.22,0000 0000 0000 0000 000000
2016-10-10 11:36:15,0.04,1.73,0.00,24.81,28.24,31.20,14.48,41.92,1027.84,2028.81,2850.67,2674.45,3030.00,599.94,599.03,45.27,0000 0000 0000 0000 000000
2016-10-10 11:41:16,0.01,1.73,0.00,24.83,28.24,31.21,14.52,41.97,1027.80,2028.67,2850.03,2674.02,3029.65,599.80,598.79,45.32,0000 0000 0000 0000 000000
2016-10-10 11:46:18,0.01,1.73,0.00,24.79,28.23,31.20,14.45,42.00,1027.79,2028.53,2849.85,2674.00,3029.02,599.80,598.76,45.37,0000 0000 0000 0000 000000
2016-10-10 11:51:19,0.02,1.73,0.00,24.79,28.23,31.20,14.45,41.90,1027.82,2028.53,2849.10,2673.74,3028.92,600.09,599.12,45.42,0000 0000 0000 0000 000000
2016-10-10 11:56:20,0.04,1.73,0.00,24.79,28.23,31.19,14.35,41.98,1027.81,2028.50,2849.00,2673.11,3028.21,599.67,598.66,45.47,0000 0000 0000 0000 000000
2016-10-10 12:01:22,0.02,1.74,0.00,24.78,28.23,31.20,14.42,41.84,1027.80,2028.68,2848.92,2673.01,3028.00,599.73,598.72,45.52,0000 0000 0000 0000 000000
2016-10-10 12:06:23,0.01,1.74,0.00,24.82,28.23,31.21,14.43,41.92,1027.80,2028.59,2848.20,2672.99,3027.85,599.93,598.88,45.57,0000 0000 0000 0000 000000
2016-10-10 12:11:24,0.01,1.74,0.00,24.78,28.23,31.20,14.48,41.96,1027.56,2028.50,2848.00,2672.92,3027.11,599.90,598.64,45.63,0000 0000 0000 0000 000000
2016-10-10 12:16:26,0.05,1.74,0.00,24.76,28.22,31.23,14.45,41.92,1027.40,2028.64,2847.82,2672.28,3027.00,600.20,598.86,45.68,0000 0000 0000 0000 000000
2016-10-10 12:21:27,0.01,1.74,0.00,24.87,28.22,31.20,14.54,42.01,1027.38,2028.57,2847.12,2672.01,3026.71,600.09,598.68,45.73,0000 0000 0000 0000 000000
2016-10-10 12:26:28,0.01,1.74,0.00,24.76,28.23,31.19,14.50,41.96,1027.38,2028.47,2846.97,2672.00,3026.04,600.13,598.95,45.78,0000 0000 0000 0000 000000
2016-10-10 12:31:30,0.02,1.74,0.00,24.79,28.23,31.21,14.45,42.03,1027.38,2028.44,2846.39,2671.88,3025.98,600.14,598.87,45.83,0000 0000 0000 0000 000000
2016-10-10 12:36:31,0.03,1.74,0.00,24.82,28.22,31.20,14.38,41.99,1027.39,2028.43,2846.02,2671.32,3025.51,599.88,598.65,45.88,0000 0000 0000 0000 000000
2016-10-10 12:41:32,-0.01,1.74,0.00,24.81,28.23,31.21,14.44,41.88,1027.37,2028.18,2845.96,2671.02,3025.02,600.06,598.78,45.93,0000 0000 0000 0000 000000
2016-10-10 12:46:33,0.02,1.74,0.00,24.85,28.23,31.22,14.40,41.94,1027.38,2028.24,2845.55,2670.99,3024.99,599.50,598.22,45.98,0000 0000 0000 0000 000000
2016-10-10 12:51:34,0.02,1.74,0.00,24.78,28.22,31.20,14.41,41.98,1027.38,2028.21,2845.02,2670.93,3024.49,599.88,598.56,46.03,0000 0000 0000 0000 000000
2016-10-10 12:56:36,0.03,1.75,0.00,24.75,28.22,31.19,14.43,41.99,1027.38,2028.23,2844.98,2670.48,3024.03,599.76,598.55,46.08,0000 0000 0000 0000 000000